    Orbital elements:
    2017 AG5                                                 Earth MOID = 0.0025 AU
    Epoch 2019 Apr. 27.0 TT = JDT 2458600.5                 MPC
    M 200.92308              (2000.0)            P               Q
    n   0.63035589     Peri.  310.79637     +0.71906180     -0.69430894
    a   1.3471383      Node    93.19887     +0.64623808     +0.65230441
    e   0.3477348      Incl.    1.70762     +0.25559044     +0.30402970
    P   1.56           H   22.4           G   0.15           U   2
    Residuals in seconds of arc
    170105 G45  0.3-  0.1-    170106 160  0.5-  0.0     170109 H45  0.1-  0.1-
    170105 G45  0.3-  0.3+    170106 K26  0.0   0.4+    170109 H45  0.2-  0.2-
    170105 G45  0.2-  0.1+    170106 107  0.3-  0.4+    170109 H45  0.3-  0.0
    170105 G45  0.2-  0.1+    170106 160  0.1-  0.2+    170109 926  0.3-  0.2+
    170105 G45  0.2-  0.1+    170106 160  0.2+  0.2-    170109 926  0.3-  0.4+
    170105 G96  0.3-  0.1+    170106 K30  0.2+  0.0     170109 926  0.2-  0.1+
    170105 G96  0.5+  0.1+    170106 107  0.3-  0.1+    170109 Z45  0.2-  0.1-
    170105 G96  0.3-  0.1+    170106 107  0.0   0.4-    170109 Z80  0.2-  0.4+
    170105 G96  0.3-  0.2-    170106 K30  0.1+  0.1+    170109 Z45  0.1-  0.0
    170105 G96  0.3-  0.1+    170106 107  0.3-  0.3-    170109 Z80  0.4-  0.0
    170105 G96  0.6-  0.2+    170106 K30  0.0   0.0     170109 Z45  0.3+  0.0
    170105 G96  0.1-  0.0     170106 K80  0.1+  0.1-    170109 Z80  0.4-  0.5+
    170105 J95  0.2+  0.1+    170106 B49  0.0   0.2-    170109 J69  0.0   0.3-
    170105 J95  0.1+  0.2+    170106 K80  0.0   0.2-    170109 J69  0.1+  0.1-
    170105 J95  0.1+  0.2+    170106 B49  0.1-  0.2-    170109 J69  0.2+  0.5-
    170105 G96  0.1-  0.5+    170106 K80  0.1-  0.1-    170109 J69  0.1+  0.2-
    170105 G96  0.0   0.1+    170106 K61  0.4-  0.8+    170109 Z48  0.1+  0.1-
    170105 G96  0.1-  0.1+    170106 K61  0.2-  0.5+    170109 Z48  0.2-  0.2+
    170105 G96  0.2-  0.1-    170106 K61  0.1-  0.5+    170109 Z48  0.4-  0.2+
    170105 I52  0.2-  0.1-    170106 B49  0.0   0.1-    170113 J95  0.0   0.0
    170105 I52  0.2-  0.0     170106 B49  0.1+  0.1+    170113 J95  0.1-  0.1-
    170105 I52  0.2-  0.1+    170106 K80  0.2-  0.0     170113 J95  0.2+  0.3-
    170105 I52  0.3-  0.1+    170106 B49  0.2-  0.1-    170113 203  0.1-  0.0
    170105 658  0.3+  0.7-    170106 K26  0.2-  0.5+    170114 203  0.1-  0.2+
    170105 658  0.2+  0.7-    170106 K63  0.2+  0.4-    170116 T05  0.0   0.2-
    170105 658  0.2+  0.5-    170106 K80  0.1-  0.0     170116 F51  0.0   0.0
    170105 J95  0.1+  0.0     170106 K80  0.1-  0.0     170116 T05  0.5-  0.2+
    170105 J95  0.0   0.1-    170106 K80  0.0   0.0     170116 T05  0.5+  0.2-
    170105 595  0.3-  0.2-    170106 K80  0.1-  0.0     170116 F51  0.0   0.0
    170105 595  0.5-  0.1-    170106 K80  0.1-  0.0     170116 F51  0.0   0.0
    170105 595  0.3-  0.2-    170106 K26  0.4-  0.3+    170117 Z80  0.3-  0.5-
    170105 595  0.5-  0.2-    170106 K80  0.1-  0.0     170117 Z80  0.2-  0.1+
    170105 J95  0.1-  0.1-    170106 K80  0.1-  0.0     170118 B67  0.4+  0.1+
    170105 Z80  0.3-  0.1+    170106 K80  0.0   0.0     170118 B67  0.3+  0.1+
    170105 Z80  0.6-  0.1+    170106 K80  0.1-  0.0     170118 B67  0.3+  0.0
    170105 Z80  0.4-  0.3+    170106 K80  0.1-  0.0     170119 D29  0.2+  0.3+
    170105 I57 (2.8-  0.2+)   170106 K80  0.1-  0.0     170119 D29  0.2+  0.3+
    170105 I57 (2.2-  0.2+)   170106 K80  0.0   0.0     170119 D29  0.2-  0.2+
    170105 I57 (2.7-  0.4-)   170106 K63  0.0   0.0     170120 246  0.1+  0.3+
    170105 I57 (2.3-  0.1-)   170106 K80  0.1-  0.0     170120 246  0.0   0.1-
    170105 Z80  0.6-  0.1+    170106 K80  0.1-  0.0     170120 246  0.8+  0.4+
    170105 Z80  0.7-  0.2-    170106 K80  0.0   0.1+    170120 246  0.1+  0.4+
    170105 J08  0.6-  0.9-    170106 K80  0.1-  0.1+    170120 246  0.3+  0.5+
    170105 510  0.1-  0.1+    170106 K80  0.1-  0.0     170120 246  0.1+  0.2+
    170105 J08  0.5-  0.5-    170106 K80  0.1-  0.1+    170120 K74  0.2+  0.4+
    170105 Z80  0.0   0.3+    170106 K80  0.0   0.0     170120 K74  0.4+  0.3+
    170105 510  0.2-  0.0     170106 K80  0.1-  0.0     170120 130  0.0   0.2-
    170105 510  0.2-  0.2+    170106 K80  0.1-  0.1+    170120 130  0.0   0.1-
    170105 J08  0.6-  0.4-    170106 K61  0.2-  0.4+    170120 130  0.0   0.3-
    170105 510  0.0   0.0     170106 K61  0.3-  0.5+    170120 130  0.1+  0.1-
    170105 J08  0.4-  0.4-    170106 K61  0.1-  0.6+    170120 160  0.6+  0.5-
    170105 510  0.0   0.0     170106 K63  0.2-  0.2-    170120 160  0.0   0.1+
    170105 Z98 (2.0+  0.2+)   170106 K26  0.2-  0.3+    170120 203  0.2-  0.1-
    170105 510  0.1-  0.1+    170106 K26  0.3+  0.3+    170121 203  0.3-  0.5-
    170105 510  0.1-  0.2-    170106 K80  0.2-  0.1-    170121 H45  0.2-  0.0
    170105 510  0.0   0.0     170106 K80  0.1+  0.1-    170121 H45  0.4+  0.0
    170105 510  0.1-  0.4-    170106 K80  0.1+  0.1-    170121 H45  0.2+  0.1+
    170105 510  0.2+  0.1-    170106 204  0.0   0.1-    170121 H45  0.1+  0.0
    170105 510  0.2+  0.2-    170106 K26  0.8-  0.4+    170121 H45  0.0   0.1-
    170105 510  0.1-  0.1-    170106 204  0.0   0.1-    170121 H45  0.0   0.1+
    170105 Z98 (2.3+  0.2+)   170106 K26  0.3-  0.4+    170121 246  0.1-  0.3-
    170105 Z98  1.5+  0.1+    170106 204  0.1-  0.1-    170121 246  0.5+  0.1+
    170105 Z98 (1.7+  0.1-)   170106 204  0.2-  0.0     170121 246  0.4+  0.1-
    170105 B96  0.2+  0.5-    170106 204  0.1-  0.1-    170121 246  0.2+  0.1-
    170105 B96  0.1+  0.2-    170106 K80  0.1-  0.2-    170121 246  0.1-  0.1+
    170105 K32  0.9+  0.1+    170106 K80  0.2-  0.2-    170121 246  0.3+  0.1+
    170105 B96  0.4+  0.4-    170106 K80  0.2-  0.1-    170121 246  0.2-  0.2-
    170105 B96  0.5+  0.5-    170106 K80  0.2-  0.2-    170121 246  0.7+  0.2+
    170105 K32  0.7+  0.2+    170106 K80  0.2-  0.2-    170122 H21  0.0   0.3+
    170105 B96  0.0   0.3-    170106 K80  0.2-  0.2-    170122 H21  0.2-  0.1+
    170105 K32  0.7+  0.1-    170106 K80  0.2-  0.2-    170122 H21  0.2-  0.1-
    170105 I93  0.3-  0.1-    170106 K80  0.2-  0.3-    170123 246  1.2-  0.1+
    170105 K32  0.9+  0.1-    170106 K80  0.2-  0.3-    170123 246  0.8-  0.7+
    170105 I93  0.2-  0.1-    170106 C44  0.3+  0.2+    170123 246  0.0   0.8+
    170105 I93  0.1-  0.1-    170106 C44  0.1-  0.2-    170123 246  0.5-  0.6-
    170105 958  1.1+  0.5-    170106 C44  0.1+  0.0     170124 H45  0.2-  0.1-
    170105 K30  0.2+  0.1+    170106 K80  0.1-  0.3-    170124 H45  0.0   0.3-
    170105 958  0.7+  1.0-    170106 K80  0.1-  0.3-    170124 H45  0.0   0.1-
    170105 B49  0.2-  0.0     170106 C44  0.0   0.1-    170124 H45  0.2+  0.1-
    170105 K26  0.3-  0.2+    170106 K80  0.2-  0.2-    170124 H45  0.1-  0.2-
    170105 K26  0.5-  0.2+    170106 K80  0.1-  0.2-    170124 H45  0.1-  0.1-
    170105 K30  0.1+  0.1-    170106 K80  0.1-  0.2-    170126 G45  0.1+  0.0
    170105 B49  0.2-  0.5-    170106 I89  0.0   0.0     170126 G45  0.1-  0.3+
    170105 958  0.8+  0.6-    170107 I89  0.1+  0.1-    170126 G45  0.2+  0.2-
    170105 C77  0.2-  0.1-    170107 I58  0.9+  0.0     170126 G45  0.1+  0.4+
    170105 C77  0.3-  0.1+    170107 I58  0.9+  0.1+    170126 G45  0.0   0.4-
    170105 B49  0.3+  0.1-    170107 I58  0.6+  0.2+    170126 H45  0.2+  0.2-
    170105 C77  0.2-  0.1+    170107 I58  0.4+  0.0     170126 H45  0.3+  0.1+
    170105 K30  0.2-  0.1+    170107 I58  0.6+  0.0     170126 H45  0.2+  0.1-
    170105 C23  0.0   0.1+    170107 K38  0.1+  0.1-    170126 H45  0.0   0.1-
    170105 C23  0.1+  0.1-    170107 K38  0.1+  0.0     170126 H45  0.0   0.0
    170105 C23  0.1+  0.0     170107 K38  0.2+  0.0     170126 H45  0.5+  0.2+
    170105 C23  0.0   0.2+    170107 718  0.5+  0.2+    170127 G96  0.5+  0.0
    170105 C23  0.1+  0.1+    170107 K38  0.1+  0.0     170127 G96  0.0   0.0
    170105 K63  0.1-  0.2+    170107 718  1.1+  0.4+    170127 G96  1.1+  0.4-
    170105 I89  0.7+  0.1-    170107 H36  0.2+  0.1-    170127 691  0.1-  0.0
    170105 C23  0.4+  0.2+    170107 718  0.1+  1.2+    170127 691  0.1-  0.0
    170105 K63  0.2-  0.1+    170107 K38  0.1+  0.1-    170127 691  0.6-  0.4+
    170105 I89  0.3+  0.1+    170107 H36  0.1+  0.1-    170128 H45  0.1+  0.4-
    170105 104  0.1+  0.1-    170107 718  0.5-  0.4+    170128 H45  0.0   0.0
    170105 K63  1.2-  0.9-    170107 K38  0.2+  0.1-    170128 H45  0.2+  0.1-
    170105 I89  0.6+  0.4-    170107 718 (0.1-  2.1+)   170128 H45  0.2+  0.3-
    170105 104  0.1-  0.0     170107 K38  0.1+  0.1-    170128 H45  0.2+  0.2-
    170105 104  0.1-  0.1-    170107 H36  0.2+  0.1-    170128 H45  0.1+  0.4-
    170105 K33  0.6+  0.0     170107 H36  0.2+  0.0     170128 F51  0.1+  0.0
    170105 204  0.1+  0.2+    170107 K38 (2.0+  1.4-)   170128 F51  0.0   0.0
    170105 K33  0.6+  0.2-    170107 I52  0.1-  0.2-    170128 F51  0.1+  0.0
    170105 C43  0.0   0.2+    170107 I52  0.2-  0.1-    170128 246  0.1-  0.1-
    170105 204  0.6-  0.3-    170107 I52  0.1-  0.1-    170128 246  0.0   0.9-
    170105 K33  0.7+  0.3+    170107 926  0.2-  0.2+    170128 246  0.1+  0.2+
    170105 C43  0.0   0.0     170107 Y00  1.3-  0.2+    170128 246  0.1-  1.1-
    170105 204  0.2+  0.3+    170107 Y00  0.9-  0.3-    170128 246  0.6-  0.2-
    170105 C43  0.0   0.0     170107 926  0.1-  0.0     170128 246  0.2-  0.0
    170105 C43  0.1-  0.0     170107 Y00  0.9+  0.5-    170128 246  0.3-  0.2+
    170105 C43  0.0   0.0     170107 926  0.3-  0.2+    170128 246  0.2-  0.5+
    170105 203  0.3-  0.1-    170107 C42  0.7+  0.5+    170128 246  0.4-  0.1+
    170105 203  0.2-  0.1-    170107 C42  0.3+  0.4+    170129 H06  0.3+  0.1+
    170105 203  0.2-  0.1-    170107 C42  0.4+  0.3+    170129 H06  0.2-  0.1+
    170105 K26  0.1-  0.2+    170107 C42  0.5+  0.2+    170129 H06  0.2+  0.5+
    170105 204  0.1+  0.2-    170107 C42  0.0   0.2+    170129 H06  0.1+  0.2+
    170105 204  0.1-  0.6-    170107 C42  0.6+  0.3+    170129 691  0.1-  0.1+
    170105 204  0.3+  0.2+    170107 C42  0.6+  0.4+    170129 691  0.3-  0.0
    170105 K26  0.0   0.2+    170107 C42  0.4+  0.6+    170129 691  0.2-  0.2+
    170105 107  0.2+  0.9-    170107 C42  0.5+  0.3+    170129 246  0.4-  0.4+
    170105 107  0.7+  0.6+    170107 C42  0.3+  0.2+    170129 246  0.5+  0.3-
    170105 107  0.2-  0.2+    170107 J08  0.4-  0.3+    170129 246  0.0   0.2-
    170105 C43  0.3+  0.1+    170107 J08  0.3-  0.0     170129 246  0.4-  0.3+
    170105 C43  0.0   0.1+    170107 J08  0.1-  0.1-    170129 246  0.3+  0.3-
    170105 C43  0.1+  0.0     170107 J08  0.7-  0.3-    170129 246  0.8+  0.2-
    170105 C43  0.0   0.0     170107 L04  0.0   0.2-    170129 246  0.8-  0.1-
    170106 H36  0.3+  0.3-    170107 L04  0.1+  0.2-    170129 246  0.4+  0.0
    170106 H36  0.3+  0.2-    170107 L04  0.0   0.1-    170130 691  0.0   0.1-
    170106 H36  0.2+  0.2-    170107 C27  0.4+  0.2-    170130 691  0.0   0.6+
    170106 H36  0.0   0.1-    170107 C27  0.1+  0.1+    170130 691  0.1-  0.3+
    170106 104  0.1-  0.1+    170107 L04  0.1-  0.1-    170130 H45  0.4+  0.1-
    170106 104  0.2-  0.2+    170107 I58  0.5+  0.6+    170130 H45  0.0   0.4-
    170106 104  0.0   0.1+    170107 I58  0.5+  0.4+    170130 H45  0.4+  0.4-
    170106 300  0.2+  0.2+    170107 I58  0.8+  0.1+    170130 H45  0.2+  0.2-
    170106 300  0.1+  0.2+    170107 I58  0.6+  0.1+    170130 H45  0.3+  0.2-
    170106 300  0.1+  0.1+    170107 Z98  1.1+  0.5+    170130 H45  0.1+  0.0
    170106 300  0.1+  0.1+    170107 Z98  1.5+  0.3+    170131 G96  0.2-  0.2+
    170106 300  0.0   0.0     170107 C27  0.1+  0.1+    170131 G96  0.0   0.2-
    170106 300  0.1+  0.1+    170107 C27  0.0   0.1-    170131 G96  0.3+  0.1+
    170106 K61  0.0   0.7+    170107 Z98  1.0+  0.0     170131 G96  0.3+  0.3+
    170106 K61 (0.0   1.6+)   170107 Z98  1.3+  0.2-    170202 691  0.0   0.2+
    170106 K61  0.1-  0.8+    170108 H45  0.3-  0.0     170202 691  0.0   0.0
    170106 K61  0.2-  0.9+    170108 H45  0.1-  0.0     170202 691  0.1+  0.3-
    170106 K61  0.3-  0.2+    170108 H45  0.2-  0.0     170203 754  0.6+  0.2-
    170106 587  0.3-  0.1-    170108 H45  0.3-  0.1-    170203 754  0.4-  0.0
    170106 587  0.3-  0.2-    170108 H45  0.3-  0.1+    170203 754  0.1-  0.7+
    170106 587  0.1-  0.0     170108 H45  0.3-  0.0     170214 F51  0.0   0.1-
    170106 118  0.8+  0.3-    170108 H45  0.2-  0.0     170214 F51  0.1-  0.1-
    170106 C23  0.6+  0.8-    170108 H45  0.1-  0.1-    170214 F51  0.1+  0.0
    170106 C23  0.1-  0.4+    170108 T05  0.3-  0.2-    170214 F51  0.1-  0.3-
    170106 C23  0.3-  0.1-    170108 T05  0.1-  0.0     170215 754  0.3+  0.0
    170106 C23  0.0   0.1+    170108 T05  0.0   0.1-    170215 754  0.8-  0.1-
    170106 C23  0.5-  0.4-    170108 T05  0.3-  0.1-    170215 754  1.1-  0.4+
    170106 C23  0.3+  0.0     170108 A48  0.6-  0.1+    170221 691  0.2-  0.3-
    170106 C23  0.3-  0.2+    170108 A48  0.3-  0.5+    170221 691  0.5+  0.2-
    170106 118  0.7+  0.2-    170108 A48  0.6-  0.1-    170221 F51  0.1-  0.1+
    170106 118  0.7+  0.3-    170108 A48  0.7-  0.2+    170221 F51  0.0   0.0
    170106 J67  0.1+  0.6+    170109 I15  0.0   0.1-    170221 691  0.1+  0.2-
    170106 J67  0.4-  0.2-    170109 I15  0.1+  0.1-    170221 F51  0.1-  0.3+
    170106 J67  0.2-  0.4-    170109 I15  0.1-  0.0     190605 T12  0.1+  0.2+
    170106 K26  0.4+  0.3+    170109 H45  0.2-  0.2-    190605 T12  0.0   0.1+
    170106 160  0.1-  0.2-    170109 H45  0.3-  0.1-    190605 T12  0.0   0.0
    170106 160  0.1+  0.0     170109 H45  0.3-  0.0     190607 T12  0.0   0.1+
    170106 160  0.2-  0.0     170109 H45  0.3-  0.0     190607 T12  0.0   0.1+
    170106 160  0.0   0.1+    170109 H45  0.3-  0.0     190608 T12  0.1+  0.1+
    
